Regional Weather Roundup
Issued by NWS State College, PA

Home | Current Version | Previous Version | Graphics & Text | Print | Product List | Glossary On
Versions: 1 2 3 4 5 6 7 8 9 10 11 12 13 14 15 16 17 18 19 20 21 22 23 24 25 26 27 28 29 30 31 32 33 34 35 36 37 38 39 40 41 42 43 44 45 46 47 48 49 50
000
ASUS41 KCTP 040810
RWRCTP

REGIONAL WEATHER ROUNDUP
NATIONAL WEATHER SERVICE STATE COLLEGE PA
400 AM EDT MON MAY 04 2015

Note: "fair" indicates few or no clouds below 12,000 feet with no
significant weather and/or obstructions to visibility.

* = STATION THAT DOES NOT REPORT PRECIPITATION /E.G. RAIN...SNOW...ETC/
    THUNDER OR FOG.

PAZ002>004-007>009-013>016-020>023-029>032-040900-
WESTERN PENNSYLVANIA

CITY           SKY/WX    TMP DP  RH WIND       PRES   REMARKS
ERIE           MOCLDY    62  41  46 S9        30.09S
MEADVILLE      CLOUDY    63  40  42 S6        30.13R
FRANKLIN*      CLOUDY    57  39  51 S6        30.16S
NEW CASTLE     FAIR      52  47  83 CALM      30.15R
BEAVER COUNTY  NOT AVBL
BUTLER*        CLEAR     50  43  76 CALM      30.17R
PITTSBURGH INT PTCLDY    53  43  68 CALM      30.15R
PITTSBURGH     CLEAR     55  42  61 S9        30.15R
INDIANA*       PTCLDY    50  43  76 CALM      30.20R
LATROBE        CLEAR     48  45  87 CALM      30.18R
WASHINGTON CO* CLEAR     43  39  87 CALM      30.17S
$$

PAZ004>006-010>012-017>019-024>028-033>037-041-042-045-046-049>053-040900-
CENTRAL PENNSYLVANIA

CITY           SKY/WX    TMP DP  RH WIND       PRES   REMARKS
BRADFORD       MOCLDY    50  39  66 CALM      30.17R
DUBOIS         PTCLDY    57  40  52 CALM      30.16R
CLEARFIELD     CLEAR     48  39  71 CALM      30.18R
JOHNSTOWN      CLEAR     59  36  42 S5        30.19R
ALTOONA        CLEAR     54  40  59 CALM      30.18S
STATE COLLEGE  CLEAR     53  41  64 CALM      30.17R
WILLIAMSPORT   CLEAR     51  42  71 W3        30.16R
SELINSGROVE    PTCLDY    47  44  90 CALM      30.16R
FT INDIANTOWN  CLEAR     49  44  83 E1        30.16S
CAPITAL CITY   CLEAR     53  46  77 SW3       30.16R
HARRISBURG     PTCLDY    54  47  77 CALM      30.16R
YORK           CLEAR     48  46  93 CALM      30.17R
$$

PAZ038>040-043-044-047-048-054-055-060>062-067>071-040900-
EASTERN PENNSYLVANIA

CITY           SKY/WX    TMP DP  RH WIND       PRES   REMARKS
SCRANTON       PTCLDY    56  37  49 CALM      30.15R
MOUNT POCONO   CLEAR     52  37  56 W5        30.18S
ALLENTOWN      CLEAR     48  41  76 NW3       30.17R
QUAKERTOWN*    SUNNY     46  45  93 CALM      30.18R
READING        CLEAR     55  43  63 CALM      30.16R
LANCASTER      CLEAR     51  44  77 E3        30.17R
COATESVILLE    SUNNY     59  46  63 W3        30.19R
POTTSTOWN      CLEAR     51  46  83 CALM      30.18R
BLUE BELL      CLEAR     52  46  82 CALM      30.17R
DOYLESTOWN     CLEAR     53  45  74 CALM      30.16R
WILLOW GROVE   NOT AVBL
NORTH PHILA    CLEAR     55  43  63 CALM      30.18S
PHILADELPHIA   CLEAR     58  49  72 SW3       30.18R
$$



USA.gov is the U.S. government's official web portal to all federal, state and local government web resources and services.